Regional Weather Roundup
Issued by NWS Upton, NY

Current Version | Previous Version | Graphics & Text | Print | Product List | Glossary Off
Versions: 1 2 3 4 5 6 7 8 9 10 11 12 13 14 15 16 17 18 19 20 21 22 23 24 25 26 27 28 29 30 31 32 33 34 35 36 37 38 39 40 41 42 43 44 45 46 47 48 49 50
000 ASUS41 KOKX 291504 RWROKX REGIONAL WEATHER ROUNDUP NATIONAL WEATHER SERVICE NEW YORK NY 1100 AM EDT SAT AUG 29 2015 NOTE: "FAIR" INDICATES FEW OR NO CLOUDS BELOW 12,000 FEET WITH NO SIGNIFICANT WEATHER AND/OR OBSTRUCTIONS TO VISIBILITY. NYZ071-072-176-178-NJZ106-104-291600- NEW YORK CITY METRO AREA CITY SKY/WX TMP DP RH WIND PRES REMARKS CENTRAL PARK SUNNY 79 53 40 CALM 30.24S LAGUARDIA APRT PTSUNNY 80 53 39 VRB3 30.20S KENNEDY INTL PTSUNNY 81 56 42 SW9 30.22S NEWARK/LIBERTY PTSUNNY 82 54 37 W8 30.21S BRNX BOT. GARD N/A 77 54 44 W10 30.23R TETERBORO SUNNY 79 54 41 CALM 30.20F $$ NYZ177-179-078>081-291600- LONG ISLAND NEW YORK CITY SKY/WX TMP DP RH WIND PRES REMARKS FARMINGDALE SUNNY 81 55 40 NW7 30.22S ISLIP PTSUNNY 79 55 43 NW7 30.20S SHIRLEY MOSUNNY 78 55 44 VRB6 30.22S WESTHAMPTON MOSUNNY 81 53 37 W13G20 30.23S MONTAUK POINT N/A 78 62 57 VRB6 30.22S $$ NYZ052-065-067-291600- HUDSON VALLEY CITY SKY/WX TMP DP RH WIND PRES REMARKS WHITE PLAINS MOSUNNY 78 54 43 W10 30.22S NEWBURGH SUNNY 73 57 56 W7 30.23F MONTGOMERY SUNNY 74 58 57 VRB7 30.22S POUGHKEEPSIE SUNNY 75 52 44 SW8 30.21S ALBANY PTSUNNY 71 56 58 S6 30.21S $$ NJZ001-105-106-008-010-013-015-019>022-104-291600- NEW JERSEY CITY SKY/WX TMP DP RH WIND PRES REMARKS NEWARK/LIBERTY PTSUNNY 82 54 37 W8 30.21S TETERBORO SUNNY 79 54 41 CALM 30.20F CALDWELL SUNNY 77 56 48 W7 30.22S MORRISTOWN MOSUNNY 81 61 50 CALM 30.22S SOMERVILLE SUNNY 80 58 46 VRB3 30.20S SUSSEX NOT AVBL ANDOVER N/A 75 60 59 CALM 30.23S TRENTON SUNNY 77 61 57 S6 30.22S MILLVILLE SUNNY 79 61 53 VRB6 30.23S ATLANTIC CITY SUNNY 81 58 45 VRB5 30.23F WRIGHTSTOWN SUNNY 79 63 57 SW6 30.20S TOMS RIVER SUNNY 81 57 44 W3 30.23S BELMAR SUNNY 81 57 44 W6 30.23S $$ PAZ047>061-062-071-291600- EASTERN PENNSYLVANIA CITY SKY/WX TMP DP RH WIND PRES REMARKS PHILADELPHIA MOSUNNY 80 59 48 W8 30.23S ALLENTOWN SUNNY 75 59 57 CALM 30.23S SCRANTON SUNNY 75 58 55 W7 30.22S $$ CTZ002-004>006-009-010-012-RIZ004-006-007-MAZ004-011-015-291600- SOUTHERN NEW ENGLAND IN CT CITY SKY/WX TMP DP RH WIND PRES REMARKS BRADLEY INTL PTSUNNY 75 56 51 W5 30.20S HARTFORD SUNNY 75 58 55 SE7 30.20F DANBURY SUNNY 74 54 49 SW7 30.23F WTRBRY/OXFORD MOSUNNY 73 52 46 NW6 30.25S BRIDGEPORT SUNNY 76 58 53 S7 30.22R MERIDEN SUNNY 77 55 46 CALM 30.21S NEW HAVEN MOSUNNY 76 57 51 S7 30.22S CHESTER NOT AVBL GROTON SUNNY 73 62 68 SW9 30.20F WILLIMANTIC SUNNY 75 55 49 W6 30.21S IN RI CITY SKY/WX TMP DP RH WIND PRES REMARKS PROVIDENCE PTSUNNY 77 53 43 SW13 30.20F BLOCK ISLAND SUNNY 75 61 60 W7 30.22S WESTERLY SUNNY 76 57 51 SW7 30.21F IN MA CITY SKY/WX TMP DP RH WIND PRES REMARKS BOSTON MOSUNNY 78 53 41 SW13 30.19S WORCESTER SUNNY 70 54 56 W9 30.22F WESTFIELD MOSUNNY 74 56 53 VRB7 30.20F PROVINCETOWN SUNNY 75 55 50 W5 30.21S NANTUCKET SUNNY 78 61 55 W13 30.21S $$ ANZ330-335-338-340-345-350-353-355-291600- COASTAL MARINE OBSERVATIONS STATION/POSITION TIME SKY/WX TEMP WIND PRES VSBY WAVE AIR SEA DIR/SP/G HT/PER (UTC) (F) (DEG/KT/KT) (MB) (MI) (FT/S) NY HARB ENTRANCE 1350 73 76 310/ 4/ 6 1023.0 3/11 4S FIRE IS NOT AVBL 20S FIRE ISLAND 1350 73 75 320/ 4/ 4 1023.2 3/11 GREAT SOUTH BAY 1400 73 78 260/ 2/ 4 N/A 23SW MTP 1450 72 73 280/ 6/ 8 1023.0 3/10 HUDSON CANYON NOT AVBL KINGS POINT NOT AVBL EXECUTION ROCKS 1400 72 100/ 2/ 4 N/A CENTRAL LI SOUND NOT AVBL EASTERN LI SOUND 1400 73 71 300/ 2/ 2 N/A ROBBINS REEF NOT AVBL $$ >>>>>>>>>>>>>>>>>>>>>>>>>>>> KEY <<<<<<<<<<<<<<<<<<<<<<<<<<< > < > SKY/WX - SKY CONDITION/PRESENT WEATHER < > TMP - TEMPERATURE IN FAHRENHEIT < > DP - DEWPOINT IN FAHRENHEIT < > RH - RELATIVE HUMIDITY IN PERCENT < > WIND - DIRECTION AND SPEED IN MPH < > PRES - MEAN SEA LEVEL PRESSURE IN INCHES OF HG < > WCI - WIND CHILL INDEX < > VSB - VISIBILITY IN MILES < > HX - HEAT INDEX < > TC - TEMPERATURE IN CELSIUS < > VRB - VARIABLE WIND DIRECTION < > < >>>>>>>>>>>>>>>>>>>>>>>>>>>> KEY <<<<<<<<<<<<<<<<<<<<<<<<<<<

USA.gov is the U.S. government's official web portal to all federal, state and local government web resources and services.